TimeEDT,TemperatureF,Dew PointF,Humidity,Sea Level PressureIn,VisibilityMPH,Wind Direction,Wind SpeedMPH,Gust SpeedMPH,PrecipitationIn,Events,Conditions,WindDirDegrees,DateUTC
12:15 AM,21.2,17.6,86,29.96,10.0,SW,6.9,-,N/A,,Overcast,220,2013-03-23 04:15:00
12:35 AM,23.0,19.4,86,29.95,10.0,SW,4.6,-,N/A,,Overcast,230,2013-03-23 04:35:00
12:55 AM,21.2,19.4,93,29.95,10.0,SW,4.6,-,N/A,,Overcast,230,2013-03-23 04:55:00
1:15 AM,21.2,17.6,86,29.95,10.0,WSW,3.5,-,N/A,,Overcast,240,2013-03-23 05:15:00
1:35 AM,19.4,17.6,93,29.96,10.0,Calm,Calm,-,N/A,,Mostly Cloudy,0,2013-03-23 05:35:00
1:55 AM,21.2,17.6,86,29.95,10.0,WSW,3.5,-,N/A,,Overcast,250,2013-03-23 05:55:00
2:15 AM,21.2,17.6,86,29.95,10.0,WSW,4.6,-,N/A,,Overcast,240,2013-03-23 06:15:00
2:35 AM,21.2,17.6,86,29.95,10.0,WSW,3.5,-,N/A,,Overcast,250,2013-03-23 06:35:00
2:55 AM,23.0,17.6,80,29.95,10.0,WSW,4.6,-,N/A,,Overcast,240,2013-03-23 06:55:00
3:15 AM,21.2,17.6,86,29.95,10.0,WSW,4.6,-,N/A,,Overcast,240,2013-03-23 07:15:00
3:35 AM,23.0,19.4,86,29.95,10.0,West,5.8,-,N/A,,Overcast,260,2013-03-23 07:35:00
3:55 AM,23.0,17.6,80,29.95,10.0,WSW,5.8,-,N/A,,Overcast,250,2013-03-23 07:55:00
4:15 AM,23.0,17.6,80,29.94,10.0,WSW,4.6,-,N/A,,Overcast,240,2013-03-23 08:15:00
4:35 AM,23.0,19.4,86,29.94,10.0,West,4.6,-,N/A,,Overcast,260,2013-03-23 08:35:00
4:55 AM,23.0,17.6,80,29.94,10.0,WSW,4.6,-,N/A,,Overcast,250,2013-03-23 08:55:00
5:15 AM,24.8,19.4,80,29.94,10.0,WSW,4.6,-,N/A,,Overcast,250,2013-03-23 09:15:00
5:35 AM,24.8,17.6,74,29.94,10.0,West,4.6,-,N/A,,Overcast,260,2013-03-23 09:35:00
5:55 AM,24.8,17.6,74,29.93,10.0,Calm,Calm,-,N/A,,Overcast,0,2013-03-23 09:55:00
6:15 AM,21.2,17.6,86,29.93,10.0,Calm,Calm,-,N/A,,Mostly Cloudy,0,2013-03-23 10:15:00
6:35 AM,19.4,15.8,86,29.94,10.0,SW,5.8,-,N/A,,Mostly Cloudy,230,2013-03-23 10:35:00
6:55 AM,21.2,17.6,86,29.95,10.0,SW,4.6,-,N/A,,Overcast,230,2013-03-23 10:55:00
7:15 AM,21.2,17.6,86,29.95,10.0,SW,4.6,-,N/A,,Overcast,220,2013-03-23 11:15:00
7:35 AM,21.2,17.6,86,29.96,10.0,SW,4.6,-,N/A,,Overcast,230,2013-03-23 11:35:00
7:55 AM,21.2,17.6,86,29.96,10.0,West,5.8,-,N/A,,Overcast,260,2013-03-23 11:55:00
8:15 AM,21.2,15.8,80,29.96,10.0,West,6.9,-,N/A,,Mostly Cloudy,270,2013-03-23 12:15:00
8:35 AM,24.8,17.6,74,29.96,10.0,WSW,5.8,-,N/A,,Mostly Cloudy,250,2013-03-23 12:35:00
9:15 AM,26.6,19.4,74,29.97,10.0,West,4.6,-,N/A,,Overcast,260,2013-03-23 13:15:00
9:35 AM,28.4,19.4,69,29.98,10.0,West,5.8,-,N/A,,Overcast,270,2013-03-23 13:35:00
9:55 AM,28.4,19.4,69,29.98,10.0,WNW,6.9,-,N/A,,Overcast,290,2013-03-23 13:55:00
10:15 AM,28.4,19.4,69,29.98,10.0,WNW,6.9,-,N/A,,Overcast,300,2013-03-23 14:15:00
10:35 AM,28.4,21.2,74,29.99,10.0,WNW,9.2,-,N/A,,Overcast,290,2013-03-23 14:35:00
10:55 AM,30.2,21.2,69,29.99,10.0,WNW,5.8,-,N/A,,Overcast,290,2013-03-23 14:55:00
11:15 AM,30.2,21.2,69,30.00,10.0,NW,5.8,-,N/A,,Overcast,320,2013-03-23 15:15:00
11:35 AM,30.2,19.4,64,30.00,10.0,NW,9.2,-,N/A,,Overcast,310,2013-03-23 15:35:00
11:55 AM,30.2,19.4,64,30.00,10.0,WNW,5.8,-,N/A,,Overcast,300,2013-03-23 15:55:00
12:15 PM,30.2,19.4,64,30.00,10.0,WNW,6.9,-,N/A,,Overcast,290,2013-03-23 16:15:00
12:35 PM,30.2,19.4,64,30.01,10.0,WNW,8.1,-,N/A,,Overcast,300,2013-03-23 16:35:00
12:55 PM,30.2,19.4,64,30.00,10.0,NW,6.9,-,N/A,,Overcast,320,2013-03-23 16:55:00
1:15 PM,30.2,19.4,64,30.00,10.0,WNW,5.8,-,N/A,,Overcast,300,2013-03-23 17:15:00
1:35 PM,30.2,19.4,64,30.00,10.0,NW,5.8,-,N/A,,Overcast,310,2013-03-23 17:35:00
1:55 PM,30.2,19.4,64,30.00,10.0,West,9.2,-,N/A,,Overcast,270,2013-03-23 17:55:00
2:15 PM,30.2,19.4,64,30.00,10.0,WNW,5.8,-,N/A,,Overcast,300,2013-03-23 18:15:00
2:35 PM,30.2,21.2,69,30.00,10.0,WNW,6.9,-,N/A,,Overcast,290,2013-03-23 18:35:00
2:55 PM,30.2,19.4,64,30.00,10.0,WNW,5.8,-,N/A,,Overcast,300,2013-03-23 18:55:00
3:15 PM,32.0,21.2,64,30.00,10.0,WNW,10.4,-,N/A,,Overcast,290,2013-03-23 19:15:00
3:35 PM,32.0,21.2,64,30.00,10.0,NW,8.1,-,N/A,,Overcast,320,2013-03-23 19:35:00
3:55 PM,32.0,21.2,64,30.00,10.0,WNW,5.8,-,N/A,,Overcast,300,2013-03-23 19:55:00
4:15 PM,33.8,21.2,60,30.00,10.0,WNW,9.2,-,N/A,,Overcast,290,2013-03-23 20:15:00
4:35 PM,33.8,21.2,60,30.00,10.0,West,10.4,-,0.01,,Overcast,280,2013-03-23 20:35:00
4:55 PM,33.8,19.4,56,30.00,10.0,NW,8.1,-,0.01,,Mostly Cloudy,310,2013-03-23 20:55:00
5:15 PM,33.8,17.6,52,30.00,10.0,WNW,6.9,-,N/A,,Mostly Cloudy,300,2013-03-23 21:15:00
5:35 PM,33.8,19.4,56,30.01,10.0,WNW,5.8,-,N/A,,Partly Cloudy,300,2013-03-23 21:35:00
5:55 PM,33.8,19.4,56,30.00,10.0,NW,6.9,-,0.01,,Scattered Clouds,310,2013-03-23 21:55:00
6:15 PM,33.8,19.4,56,30.01,10.0,NW,5.8,-,N/A,,Scattered Clouds,310,2013-03-23 22:15:00
6:35 PM,33.8,17.6,52,30.01,10.0,NW,8.1,-,N/A,,Partly Cloudy,320,2013-03-23 22:35:00
6:55 PM,32.0,19.4,60,30.01,10.0,WNW,4.6,-,N/A,,Partly Cloudy,290,2013-03-23 22:55:00
7:15 PM,30.2,17.6,60,30.01,10.0,NW,5.8,-,N/A,,Clear,310,2013-03-23 23:15:00
7:35 PM,30.2,17.6,60,29.99,10.0,Calm,Calm,-,N/A,,Clear,0,2013-03-23 23:35:00
7:55 PM,28.4,15.8,59,30.00,10.0,WNW,3.5,-,N/A,,Clear,300,2013-03-23 23:55:00
8:15 PM,28.4,15.8,59,29.99,10.0,NW,3.5,-,N/A,,Clear,320,2013-03-24 00:15:00
8:35 PM,28.4,17.6,64,30.00,10.0,NW,3.5,-,N/A,,Clear,310,2013-03-24 00:35:00
8:55 PM,26.6,17.6,69,30.02,10.0,NW,3.5,-,N/A,,Clear,310,2013-03-24 00:55:00
9:15 PM,26.6,15.8,64,30.01,10.0,North,4.6,-,N/A,,Clear,350,2013-03-24 01:15:00
9:35 PM,26.6,17.6,69,30.01,10.0,North,3.5,-,N/A,,Clear,360,2013-03-24 01:35:00
9:55 PM,26.6,17.6,69,30.01,10.0,North,3.5,-,N/A,,Clear,10,2013-03-24 01:55:00
10:15 PM,24.8,17.6,74,30.01,10.0,Calm,Calm,-,N/A,,Clear,0,2013-03-24 02:15:00
10:35 PM,24.8,17.6,74,30.02,10.0,Calm,Calm,-,N/A,,Clear,0,2013-03-24 02:35:00
10:55 PM,24.8,17.6,74,30.02,10.0,Calm,Calm,-,N/A,,Clear,0,2013-03-24 02:55:00
11:15 PM,24.8,17.6,74,30.01,10.0,Calm,Calm,-,N/A,,Clear,0,2013-03-24 03:15:00
11:35 PM,24.8,17.6,74,30.01,10.0,Calm,Calm,-,N/A,,Clear,0,2013-03-24 03:35:00
11:55 PM,24.8,17.6,74,30.01,10.0,Calm,Calm,-,N/A,,Clear,0,2013-03-24 03:55:00